| time (UTC) | temp C | wind direction | speed KPH | gust KPH | rain 1hr cm | rain 24hr cm | rain mn cm | humidity % | barometer mb |
| 20260506164612 | 15 | 277 | 3.2 | 9.7 | 0.00 | 0.00 | 0.00 | 79 | 1003.1 |
| 20260506164111 | 15 | 230 | 1.6 | 6.4 | 0.00 | 0.00 | 0.00 | 79 | 1003.2 |
| 20260506163611 | 15 | 223 | 3.2 | 6.4 | 0.00 | 0.00 | 0.00 | 79 | 1003.2 |
| 20260506163111 | 15 | 273 | 3.2 | 6.4 | 0.00 | 0.00 | 0.00 | 80 | 1003.2 |
| 20260506162110 | 15 | 185 | 1.6 | 6.4 | 0.00 | 0.00 | 0.00 | 80 | 1003.2 |
| 20260506161612 | 14 | 231 | 3.2 | 6.4 | 0.00 | 0.00 | 0.00 | 81 | 1003.2 |
| 20260506161111 | 14 | 242 | 1.6 | 6.4 | 0.00 | 0.00 | 0.00 | 81 | 1003.2 |
| 20260506160610 | 14 | 276 | 1.6 | 6.4 | 0.00 | 0.00 | 0.00 | 83 | 1003.1 |
| 20260506155056 | 13 | 206 | 0.0 | 4.8 | 0.00 | 0.03 | 0.00 | 83 | 1003.2 |
| 20260506154551 | 13 | 205 | 0.0 | 3.2 | 0.00 | 0.03 | 0.00 | 83 | 1003.3 |
| 20260506154045 | 13 | 205 | 1.6 | 4.8 | 0.00 | 0.03 | 0.00 | 84 | 1003.2 |
| 20260506153539 | 13 | 205 | 1.6 | 4.8 | 0.00 | 0.03 | 0.00 | 84 | 1003.2 |
| 20260506153033 | 13 | 190 | 1.6 | 6.4 | 0.00 | 0.03 | 0.00 | 84 | 1003.2 |
| 20260506152527 | 13 | 188 | 1.6 | 6.4 | 0.00 | 0.03 | 0.00 | 84 | 1003.2 |
| 20260506152021 | 13 | 170 | 1.6 | 6.4 | 0.00 | 0.03 | 0.00 | 85 | 1003.1 |
| 20260506151515 | 13 | 191 | 0.0 | 4.8 | 0.00 | 0.03 | 0.00 | 85 | 1003.1 |
| 20260506150503 | 12 | 238 | 0.0 | 0.0 | 0.00 | 0.03 | 0.00 | 85 | 1003.1 |
| 20260506145957 | 12 | 240 | 0.0 | 0.0 | 0.00 | 0.03 | 0.00 | 85 | 1003.1 |
| 20260506145451 | 12 | 239 | 0.0 | 0.0 | 0.00 | 0.03 | 0.00 | 86 | 1003.1 |
| 20260506144945 | 12 | 238 | 0.0 | 0.0 | 0.00 | 0.03 | 0.00 | 86 | 1003.0 |
| 20260506144439 | 12 | 239 | 0.0 | 0.0 | 0.00 | 0.03 | 0.00 | 85 | 1003.1 |
| 20260506143933 | 12 | 239 | 0.0 | 0.0 | 0.00 | 0.03 | 0.00 | 86 | 1003.0 |
| 20260506143427 | 12 | 280 | 0.0 | 0.0 | 0.00 | 0.03 | 0.00 | 86 | 1002.9 |
| 20260506142921 | 12 | 281 | 0.0 | 0.0 | 0.00 | 0.03 | 0.00 | 86 | 1002.9 |
| 20260506142415 | 12 | 282 | 0.0 | 0.0 | 0.00 | 0.03 | 0.00 | 86 | 1002.8 |
| 20260506141909 | 12 | 283 | 0.0 | 0.0 | 0.00 | 0.03 | 0.00 | 86 | 1002.7 |
| 20260506141402 | 12 | 283 | 0.0 | 0.0 | 0.00 | 0.03 | 0.00 | 86 | 1002.8 |
| 20260506140856 | 12 | 283 | 0.0 | 0.0 | 0.00 | 0.03 | 0.00 | 86 | 1002.8 |
| 20260506140350 | 12 | 283 | 0.0 | 0.0 | 0.00 | 0.03 | 0.00 | 86 | 1002.6 |
| 20260506135845 | 12 | 283 | 0.0 | 0.0 | 0.00 | 0.03 | 0.00 | 85 | 1002.6 |
| 20260506135338 | 12 | 283 | 0.0 | 0.0 | 0.00 | 0.03 | 0.00 | 85 | 1002.6 |
| 20260506134833 | 12 | 283 | 0.0 | 0.0 | 0.00 | 0.03 | 0.00 | 85 | 1002.6 |
| 20260506134327 | 12 | 283 | 0.0 | 0.0 | 0.00 | 0.03 | 0.00 | 85 | 1002.5 |
| 20260506133314 | 12 | 283 | 0.0 | 0.0 | 0.00 | 0.03 | 0.00 | 85 | 1002.6 |
| 20260506132809 | 12 | 283 | 0.0 | 0.0 | 0.00 | 0.03 | 0.00 | 85 | 1002.5 |
| 20260506132306 | 12 | 283 | 0.0 | 0.0 | 0.00 | 0.03 | 0.00 | 85 | 1002.5 |
| 20260506131757 | 12 | 282 | 0.0 | 0.0 | 0.00 | 0.03 | 0.00 | 85 | 1002.5 |
| 20260506131251 | 12 | 282 | 0.0 | 0.0 | 0.00 | 0.03 | 0.00 | 84 | 1002.4 |
| 20260506130745 | 12 | 282 | 0.0 | 0.0 | 0.00 | 0.03 | 0.00 | 84 | 1002.4 |
| 20260506130238 | 12 | 282 | 0.0 | 0.0 | 0.00 | 0.03 | 0.00 | 84 | 1002.3 |
| 20260506125733 | 12 | 282 | 0.0 | 0.0 | 0.00 | 0.03 | 0.00 | 84 | 1002.3 |
| 20260506125227 | 12 | 282 | 0.0 | 0.0 | 0.00 | 0.03 | 0.00 | 84 | 1002.3 |
| 20260506124720 | 12 | 282 | 0.0 | 0.0 | 0.00 | 0.03 | 0.00 | 84 | 1002.3 |
| 20260506124215 | 12 | 282 | 0.0 | 0.0 | 0.00 | 0.03 | 0.00 | 84 | 1002.2 |
| 20260506123709 | 12 | 282 | 0.0 | 0.0 | 0.00 | 0.03 | 0.00 | 84 | 1002.2 |
| 20260506122658 | 12 | 282 | 0.0 | 0.0 | 0.00 | 0.03 | 0.00 | 84 | 1002.2 |
| 20260506122151 | 12 | 282 | 0.0 | 0.0 | 0.00 | 0.03 | 0.00 | 84 | 1002.1 |
| 20260506121644 | 12 | 282 | 0.0 | 0.0 | 0.00 | 0.03 | 0.00 | 84 | 1002.2 |
| 20260506120633 | 12 | 282 | 0.0 | 0.0 | 0.00 | 0.03 | 0.00 | 84 | 1002.1 |
| 20260506120127 | 12 | 282 | 0.0 | 0.0 | 0.00 | 0.03 | 0.00 | 84 | 1002.1 |
| 20260506115621 | 12 | 282 | 0.0 | 0.0 | 0.00 | 0.03 | 0.00 | 84 | 1002.0 |
| 20260506115116 | 12 | 282 | 0.0 | 0.0 | 0.00 | 0.03 | 0.00 | 84 | 1002.0 |
| 20260506114609 | 12 | 282 | 0.0 | 0.0 | 0.00 | 0.03 | 0.00 | 84 | 1002.0 |
| 20260506114103 | 12 | 282 | 0.0 | 0.0 | 0.00 | 0.03 | 0.00 | 84 | 1001.9 |
| 20260506113051 | 12 | 282 | 0.0 | 0.0 | 0.00 | 0.03 | 0.00 | 84 | 1002.0 |
| 20260506112544 | 12 | 282 | 0.0 | 0.0 | 0.00 | 0.03 | 0.00 | 84 | 1001.9 |
| 20260506112038 | 12 | 282 | 0.0 | 0.0 | 0.00 | 0.03 | 0.00 | 84 | 1001.9 |
| 20260506111533 | 12 | 282 | 0.0 | 0.0 | 0.00 | 0.03 | 0.00 | 84 | 1001.8 |
| 20260506110015 | 12 | 282 | 0.0 | 0.0 | 0.00 | 0.03 | 0.00 | 84 | 1001.7 |
| 20260506105509 | 12 | 282 | 0.0 | 0.0 | 0.00 | 0.03 | 0.00 | 84 | 1001.7 |
| 20260506105002 | 12 | 282 | 0.0 | 0.0 | 0.00 | 0.03 | 0.00 | 84 | 1001.7 |
| 20260506104457 | 12 | 282 | 0.0 | 0.0 | 0.00 | 0.03 | 0.00 | 83 | 1001.7 |
| 20260506103951 | 12 | 282 | 0.0 | 0.0 | 0.00 | 0.03 | 0.00 | 83 | 1001.7 |
| 20260506103445 | 12 | 286 | 0.0 | 0.0 | 0.00 | 0.03 | 0.00 | 83 | 1001.6 |
| 20260506102939 | 12 | 286 | 0.0 | 0.0 | 0.00 | 0.03 | 0.00 | 83 | 1001.6 |
| 20260506102432 | 12 | 286 | 0.0 | 0.0 | 0.00 | 0.03 | 0.00 | 83 | 1001.5 |
| 20260506101926 | 12 | 286 | 0.0 | 0.0 | 0.00 | 0.03 | 0.00 | 83 | 1001.5 |
| 20260506101420 | 12 | 286 | 0.0 | 0.0 | 0.00 | 0.03 | 0.00 | 83 | 1001.5 |
| 20260506100915 | 12 | 286 | 0.0 | 0.0 | 0.00 | 0.03 | 0.00 | 83 | 1001.5 |
| 20260506100408 | 12 | 286 | 0.0 | 0.0 | 0.00 | 0.03 | 0.00 | 83 | 1001.5 |
| 20260506095903 | 12 | 286 | 0.0 | 0.0 | 0.00 | 0.03 | 0.00 | 84 | 1001.5 |
| 20260506094851 | 12 | 277 | 0.0 | 0.0 | 0.00 | 0.03 | 0.00 | 84 | 1001.5 |
| 20260506094345 | 12 | 277 | 0.0 | 0.0 | 0.00 | 0.03 | 0.00 | 84 | 1001.6 |
| 20260506093838 | 12 | 277 | 0.0 | 0.0 | 0.00 | 0.03 | 0.00 | 84 | 1001.7 |
| 20260506093333 | 12 | 240 | 0.0 | 0.0 | 0.00 | 0.03 | 0.00 | 84 | 1001.6 |
| 20260506092827 | 12 | 259 | 0.0 | 0.0 | 0.00 | 0.03 | 0.00 | 84 | 1001.6 |
| 20260506092321 | 12 | 259 | 0.0 | 0.0 | 0.00 | 0.03 | 0.00 | 84 | 1001.6 |
| 20260506091815 | 12 | 259 | 0.0 | 0.0 | 0.00 | 0.05 | 0.00 | 84 | 1001.6 |
| 20260506090256 | 12 | 259 | 0.0 | 3.2 | 0.00 | 0.08 | 0.00 | 83 | 1001.5 |
| 20260506085751 | 12 | 257 | 0.0 | 3.2 | 0.00 | 0.08 | 0.00 | 84 | 1001.6 |
| 20260506085244 | 12 | 250 | 0.0 | 4.8 | 0.00 | 0.10 | 0.00 | 83 | 1001.6 |
| 20260506084738 | 12 | 268 | 0.0 | 4.8 | 0.00 | 0.10 | 0.00 | 83 | 1001.6 |
| 20260506084232 | 12 | 265 | 0.0 | 1.6 | 0.00 | 0.13 | 0.00 | 83 | 1001.5 |
| 20260506083726 | 12 | 240 | 0.0 | 0.0 | 0.00 | 0.13 | 0.00 | 83 | 1001.4 |
| 20260506083220 | 12 | 264 | 0.0 | 0.0 | 0.00 | 0.13 | 0.00 | 83 | 1001.6 |
| 20260506082715 | 12 | 244 | 0.0 | 0.0 | 0.00 | 0.13 | 0.00 | 83 | 1001.7 |
| 20260506082208 | 12 | 244 | 0.0 | 0.0 | 0.00 | 0.13 | 0.00 | 83 | 1001.6 |
| 20260506081703 | 12 | 244 | 0.0 | 0.0 | 0.00 | 0.13 | 0.00 | 83 | 1001.7 |
| 20260506081200 | 12 | 242 | 0.0 | 0.0 | 0.00 | 0.13 | 0.00 | 83 | 1001.6 |
| 20260506080650 | 12 | 242 | 0.0 | 0.0 | 0.00 | 0.15 | 0.00 | 83 | 1001.6 |
| 20260506080144 | 12 | 242 | 0.0 | 0.0 | 0.00 | 0.15 | 0.00 | 83 | 1001.6 |
| 20260506073134 | 12 | 276 | 0.0 | 0.0 | 0.00 | 0.33 | 0.00 | 83 | 1001.4 |
| 20260506072635 | 12 | 276 | 0.0 | 0.0 | 0.00 | 0.33 | 0.00 | 83 | 1001.4 |
| 20260506072131 | 12 | 276 | 0.0 | 4.8 | 0.00 | 0.33 | 0.00 | 83 | 1001.3 |
| 20260506071633 | 12 | 275 | 1.6 | 4.8 | 0.00 | 0.36 | 0.00 | 83 | 1001.3 |
| 20260506071131 | 12 | 265 | 0.0 | 3.2 | 0.00 | 0.36 | 0.00 | 84 | 1001.3 |
| 20260506070631 | 12 | 278 | 0.0 | 0.0 | 0.00 | 0.38 | 0.00 | 84 | 1001.2 |
| 20260506070132 | 12 | 278 | 0.0 | 0.0 | 0.00 | 0.38 | 0.00 | 84 | 1001.1 |
| 20260506062129 | 12 | 241 | 1.6 | 4.8 | 0.00 | 0.41 | 0.38 | 84 | 1000.9 |
| 20260506061628 | 12 | 242 | 1.6 | 4.8 | 0.00 | 0.43 | 0.38 | 84 | 1000.9 |
| 20260506060623 | 12 | 207 | 1.6 | 4.8 | 0.00 | 0.43 | 0.38 | 85 | 1000.8 |
| 20260506060124 | 12 | 225 | 0.0 | 3.2 | 0.00 | 0.46 | 0.38 | 85 | 1000.9 |
| 20260506051119 | 12 | 227 | 1.6 | 9.7 | 0.00 | 0.64 | 0.38 | 86 | 1000.5 |
| 20260506050620 | 12 | 205 | 1.6 | 9.7 | 0.00 | 0.64 | 0.38 | 86 | 1000.6 |
| 20260506050119 | 12 | 248 | 1.6 | 8.0 | 0.00 | 0.64 | 0.38 | 87 | 1000.5 |
| 20260506045115 | 12 | 203 | 1.6 | 3.2 | 0.00 | 0.66 | 0.38 | 87 | 1000.4 |
| 20260506044615 | 12 | 203 | 0.0 | 3.2 | 0.00 | 0.69 | 0.38 | 87 | 1000.4 |
| 20260506043115 | 12 | 203 | 0.0 | 1.6 | 0.00 | 0.74 | 0.38 | 87 | 1000.1 |
| 20260506042614 | 12 | 203 | 0.0 | 3.2 | 0.00 | 0.74 | 0.38 | 87 | 1000.1 |
| 20260506042114 | 12 | 203 | 0.0 | 3.2 | 0.00 | 0.74 | 0.38 | 86 | 1000.1 |
| 20260506041607 | 12 | 241 | 0.0 | 0.0 | 0.00 | 0.76 | 0.38 | 86 | 1000.0 |
| 20260506041102 | 12 | 241 | 0.0 | 0.0 | 0.00 | 0.76 | 0.38 | 86 | 1000.0 |
| 20260506040053 | 12 | 242 | 0.0 | 1.6 | 0.00 | 0.79 | 0.38 | 86 | 999.9 |
| 20260506035553 | 12 | 242 | 0.0 | 1.6 | 0.00 | 0.79 | 0.38 | 86 | 999.9 |
| 20260506035053 | 12 | 248 | 0.0 | 3.2 | 0.00 | 0.79 | 0.38 | 86 | 999.7 |
| 20260506034549 | 12 | 248 | 1.6 | 4.8 | 0.00 | 0.79 | 0.38 | 86 | 999.6 |
| 20260506033549 | 12 | 228 | 1.6 | 4.8 | 0.00 | 0.79 | 0.38 | 85 | 999.5 |
| 20260506033049 | 13 | 221 | 1.6 | 8.0 | 0.00 | 0.79 | 0.38 | 85 | 999.3 |
| 20260506032052 | 13 | 238 | 0.0 | 4.8 | 0.00 | 0.79 | 0.38 | 85 | 999.2 |
| 20260506031045 | 13 | 246 | 1.6 | 11.3 | 0.00 | 0.79 | 0.38 | 85 | 999.1 |
| 20260506030545 | 13 | 242 | 3.2 | 11.3 | 0.00 | 0.79 | 0.38 | 85 | 998.9 |
| 20260506025045 | 13 | 220 | 1.6 | 6.4 | 0.00 | 0.79 | 0.38 | 85 | 998.8 |
| 20260506024545 | 13 | 255 | 3.2 | 12.9 | 0.00 | 0.79 | 0.38 | 85 | 998.7 |
| 20260506024044 | 13 | 208 | 3.2 | 12.9 | 0.00 | 0.79 | 0.38 | 85 | 998.8 |
| 20260506023030 | 13 | 215 | 3.2 | 9.7 | 0.00 | 0.79 | 0.38 | 85 | 998.8 |
| 20260506022018 | 13 | 241 | 1.6 | 8.0 | 0.00 | 0.79 | 0.38 | 85 | 998.7 |
| 20260506021512 | 13 | 277 | 3.2 | 12.9 | 0.00 | 0.79 | 0.38 | 85 | 998.6 |
| 20260506021005 | 13 | 228 | 4.8 | 12.9 | 0.00 | 0.79 | 0.38 | 85 | 998.6 |
| 20260506020459 | 13 | 208 | 4.8 | 12.9 | 0.00 | 0.79 | 0.38 | 84 | 998.5 |
| 20260506015954 | 13 | 243 | 4.8 | 11.3 | 0.00 | 0.79 | 0.38 | 84 | 998.4 |
| 20260506015448 | 13 | 233 | 4.8 | 11.3 | 0.00 | 0.79 | 0.38 | 84 | 998.4 |
| 20260506014944 | 13 | 231 | 4.8 | 12.9 | 0.00 | 0.79 | 0.38 | 84 | 998.4 |
| 20260506014435 | 13 | 222 | 4.8 | 12.9 | 0.00 | 0.79 | 0.38 | 83 | 998.3 |
| 20260506013930 | 14 | 238 | 4.8 | 12.9 | 0.00 | 0.79 | 0.38 | 83 | 998.4 |
| 20260506013426 | 14 | 188 | 4.8 | 14.5 | 0.00 | 0.79 | 0.38 | 83 | 998.4 |
| 20260506012918 | 14 | 196 | 4.8 | 14.5 | 0.00 | 0.79 | 0.38 | 82 | 998.3 |
| 20260506012412 | 14 | 266 | 4.8 | 14.5 | 0.00 | 0.79 | 0.38 | 82 | 998.5 |
| 20260506011905 | 14 | 190 | 4.8 | 14.5 | 0.00 | 0.79 | 0.38 | 82 | 998.4 |
| 20260506011400 | 14 | 209 | 4.8 | 9.7 | 0.00 | 0.79 | 0.38 | 82 | 998.5 |
| 20260506010854 | 14 | 185 | 4.8 | 12.9 | 0.00 | 0.79 | 0.38 | 82 | 998.5 |
| 20260506010348 | 14 | 238 | 4.8 | 12.9 | 0.00 | 0.79 | 0.38 | 82 | 998.4 |
| 20260506005336 | 15 | 269 | 4.8 | 12.9 | 0.00 | 0.79 | 0.38 | 82 | 998.4 |
| 20260506004830 | 15 | 193 | 4.8 | 12.9 | 0.00 | 0.79 | 0.38 | 82 | 998.3 |
| 20260506004324 | 15 | 197 | 6.4 | 12.9 | 0.00 | 0.79 | 0.38 | 82 | 998.3 |
| 20260506003817 | 15 | 208 | 6.4 | 12.9 | 0.00 | 0.79 | 0.38 | 81 | 998.3 |
| 20260506003312 | 15 | 221 | 4.8 | 14.5 | 0.00 | 0.79 | 0.38 | 81 | 998.3 |
| 20260506002259 | 15 | 244 | 3.2 | 11.3 | 0.00 | 0.79 | 0.38 | 81 | 998.3 |
| 20260506001754 | 15 | 256 | 4.8 | 9.7 | 0.00 | 0.79 | 0.38 | 82 | 998.1 |
| 20260506001248 | 15 | 202 | 4.8 | 14.5 | 0.00 | 0.79 | 0.38 | 82 | 998.1 |
| 20260506000742 | 15 | 224 | 6.4 | 14.5 | 0.00 | 0.79 | 0.38 | 82 | 998.1 |
| 20260506000236 | 14 | 212 | 6.4 | 14.5 | 0.00 | 0.79 | 0.38 | 82 | 998.1 |
| 20260505235730 | 15 | 211 | 4.8 | 14.5 | 0.00 | 0.79 | 0.38 | 83 | 998.1 |
| 20260505235224 | 14 | 205 | 4.8 | 14.5 | 0.00 | 0.79 | 0.38 | 83 | 998.1 |
| 20260505234718 | 14 | 248 | 4.8 | 11.3 | 0.00 | 0.79 | 0.38 | 84 | 998.2 |
| 20260505234212 | 14 | 239 | 4.8 | 11.3 | 0.00 | 0.79 | 0.38 | 84 | 998.2 |
| 20260505233705 | 14 | 202 | 6.4 | 16.1 | 0.00 | 0.79 | 0.38 | 83 | 998.1 |
| 20260505232655 | 14 | 218 | 4.8 | 12.9 | 0.00 | 0.79 | 0.38 | 83 | 998.2 |
| 20260505231641 | 14 | 239 | 4.8 | 11.3 | 0.00 | 0.79 | 0.38 | 83 | 998.2 |
| 20260505231135 | 14 | 208 | 4.8 | 11.3 | 0.00 | 0.79 | 0.38 | 83 | 998.3 |
| 20260505230630 | 15 | 229 | 4.8 | 11.3 | 0.00 | 0.79 | 0.38 | 83 | 998.2 |
| 20260505230124 | 15 | 200 | 4.8 | 12.9 | 0.00 | 0.79 | 0.38 | 83 | 998.2 |
| 20260505225112 | 15 | 233 | 4.8 | 14.5 | 0.00 | 0.79 | 0.38 | 83 | 998.2 |
| 20260505224606 | 15 | 247 | 6.4 | 14.5 | 0.00 | 0.79 | 0.38 | 82 | 998.1 |
| 20260505224100 | 15 | 250 | 6.4 | 16.1 | 0.00 | 0.79 | 0.38 | 81 | 998.2 |
| 20260505223554 | 15 | 249 | 6.4 | 16.1 | 0.00 | 0.79 | 0.38 | 81 | 998.2 |
| 20260505223048 | 15 | 255 | 6.4 | 14.5 | 0.00 | 0.79 | 0.38 | 80 | 998.2 |
| 20260505222541 | 15 | 257 | 6.4 | 14.5 | 0.00 | 0.79 | 0.38 | 79 | 998.2 |
| 20260505222035 | 16 | 219 | 6.4 | 19.3 | 0.00 | 0.79 | 0.38 | 79 | 998.1 |
| 20260505221530 | 16 | 247 | 4.8 | 19.3 | 0.00 | 0.79 | 0.38 | 79 | 998.1 |
| 20260505220518 | 16 | 249 | 6.4 | 17.7 | 0.00 | 0.79 | 0.38 | 79 | 998.1 |
| 20260505220012 | 16 | 300 | 6.4 | 17.7 | 0.00 | 0.79 | 0.38 | 79 | 998.1 |
| 20260505215506 | 16 | 242 | 6.4 | 11.3 | 0.00 | 0.79 | 0.38 | 79 | 998.2 |
| 20260505215000 | 16 | 245 | 6.4 | 11.3 | 0.00 | 0.79 | 0.38 | 79 | 998.2 |
| 20260505213948 | 16 | 198 | 4.8 | 14.5 | 0.00 | 0.79 | 0.38 | 79 | 998.3 |
| 20260505213442 | 16 | 250 | 4.8 | 11.3 | 0.00 | 0.79 | 0.38 | 79 | 998.3 |
| 20260505212935 | 16 | 249 | 6.4 | 12.9 | 0.00 | 0.79 | 0.38 | 78 | 998.4 |
| 20260505212430 | 16 | 225 | 4.8 | 12.9 | 0.00 | 0.79 | 0.38 | 80 | 998.4 |
| 20260505211924 | 16 | 244 | 4.8 | 12.9 | 0.00 | 0.79 | 0.38 | 80 | 998.4 |
| 20260505211418 | 15 | 187 | 4.8 | 12.9 | 0.00 | 0.79 | 0.38 | 80 | 998.4 |
| 20260505210911 | 15 | 282 | 4.8 | 11.3 | 0.00 | 0.79 | 0.38 | 79 | 998.3 |
| 20260505205900 | 15 | 231 | 3.2 | 11.3 | 0.00 | 0.79 | 0.38 | 81 | 998.4 |
| 20260505204849 | 15 | 271 | 3.2 | 9.7 | 0.00 | 0.79 | 0.38 | 81 | 998.5 |
| 20260505204349 | 15 | 216 | 3.2 | 14.5 | 0.00 | 0.79 | 0.38 | 81 | 998.4 |
| 20260505203848 | 15 | 248 | 3.2 | 14.5 | 0.00 | 0.79 | 0.38 | 81 | 998.4 |
| 20260505203350 | 15 | 257 | 3.2 | 6.4 | 0.00 | 0.79 | 0.38 | 81 | 998.4 |
| 20260505202848 | 15 | 205 | 1.6 | 6.4 | 0.00 | 0.79 | 0.38 | 81 | 998.4 |
| 20260505202346 | 15 | 213 | 1.6 | 9.7 | 0.00 | 0.79 | 0.38 | 81 | 998.5 |
| 20260505201846 | 15 | 218 | 1.6 | 11.3 | 0.00 | 0.79 | 0.38 | 81 | 998.5 |
| 20260505201347 | 15 | 236 | 3.2 | 11.3 | 0.00 | 0.79 | 0.38 | 81 | 998.5 |
| 20260505200847 | 15 | 271 | 4.8 | 9.7 | 0.00 | 0.79 | 0.38 | 80 | 998.5 |
| 20260505200348 | 15 | 209 | 3.2 | 8.0 | 0.00 | 0.79 | 0.38 | 80 | 998.5 |
| 20260505195848 | 15 | 223 | 3.2 | 8.0 | 0.00 | 0.79 | 0.38 | 80 | 998.4 |
| 20260505195348 | 15 | 207 | 3.2 | 8.0 | 0.00 | 0.79 | 0.38 | 79 | 998.5 |
| 20260505194842 | 15 | 256 | 4.8 | 11.3 | 0.00 | 0.79 | 0.38 | 79 | 998.5 |
| 20260505193842 | 15 | 163 | 3.2 | 9.7 | 0.00 | 0.79 | 0.38 | 81 | 998.5 |
| 20260505192843 | 14 | 168 | 3.2 | 8.0 | 0.00 | 0.79 | 0.38 | 83 | 998.6 |
| 20260505192343 | 14 | 244 | 1.6 | 4.8 | 0.00 | 0.79 | 0.38 | 85 | 998.7 |
| 20260505191842 | 14 | 210 | 1.6 | 9.7 | 0.00 | 0.79 | 0.38 | 85 | 998.5 |
| 20260505191343 | 14 | 206 | 1.6 | 9.7 | 0.00 | 0.79 | 0.38 | 85 | 998.5 |
| 20260505190844 | 13 | 218 | 3.2 | 8.0 | 0.00 | 0.79 | 0.38 | 85 | 998.5 |
| 20260505190339 | 13 | 232 | 3.2 | 8.0 | 0.00 | 0.79 | 0.38 | 85 | 998.5 |
| 20260505185840 | 13 | 196 | 3.2 | 8.0 | 0.00 | 0.79 | 0.38 | 85 | 998.5 |
| 20260505185340 | 13 | 204 | 1.6 | 6.4 | 0.00 | 0.79 | 0.38 | 86 | 998.4 |
| 20260505184838 | 13 | 240 | 1.6 | 6.4 | 0.00 | 0.79 | 0.38 | 86 | 998.3 |
| 20260505184339 | 13 | 279 | 1.6 | 4.8 | 0.00 | 0.79 | 0.38 | 86 | 998.3 |
| 20260505183838 | 13 | 30 | 1.6 | 4.8 | 0.00 | 0.79 | 0.38 | 87 | 998.3 |
| 20260505183340 | 13 | 355 | 1.6 | 4.8 | 0.00 | 0.79 | 0.38 | 88 | 998.3 |
| 20260505182838 | 13 | 279 | 1.6 | 9.7 | 0.00 | 0.79 | 0.38 | 88 | 998.4 |
| 20260505182339 | 13 | 273 | 1.6 | 9.7 | 0.00 | 0.79 | 0.38 | 89 | 998.4 |
| 20260505181840 | 13 | 273 | 1.6 | 6.4 | 0.00 | 0.79 | 0.38 | 90 | 998.4 |
| 20260505181340 | 13 | 188 | 1.6 | 6.4 | 0.00 | 0.79 | 0.38 | 90 | 998.4 |
| 20260505180338 | 12 | 309 | 0.0 | 4.8 | 0.00 | 0.79 | 0.38 | 91 | 998.3 |
| 20260505175836 | 12 | 309 | 0.0 | 4.8 | 0.00 | 0.79 | 0.38 | 91 | 998.4 |
| 20260505175335 | 12 | 294 | 1.6 | 4.8 | 0.00 | 0.79 | 0.38 | 91 | 998.3 |
| 20260505174835 | 12 | 293 | 1.6 | 4.8 | 0.00 | 0.79 | 0.38 | 91 | 998.1 |
| 20260505174333 | 12 | 275 | 1.6 | 6.4 | 0.00 | 0.79 | 0.38 | 91 | 998.1 |
| 20260505173832 | 12 | 268 | 1.6 | 8.0 | 0.00 | 0.79 | 0.38 | 91 | 998.0 |
| 20260505173332 | 12 | 281 | 1.6 | 8.0 | 0.00 | 0.79 | 0.38 | 91 | 998.1 |
| 20260505172832 | 12 | 268 | 1.6 | 8.0 | 0.00 | 0.79 | 0.38 | 92 | 998.1 |
| 20260505172333 | 12 | 283 | 1.6 | 4.8 | 0.00 | 0.79 | 0.38 | 92 | 998.0 |
| 20260505171319 | 12 | 277 | 0.0 | 1.6 | 0.00 | 0.79 | 0.38 | 92 | 998.0 |
| 20260505170813 | 12 | 277 | 1.6 | 4.8 | 0.00 | 0.79 | 0.38 | 92 | 998.1 |
| 20260505165801 | 12 | 278 | 1.6 | 6.4 | 0.03 | 0.79 | 0.38 | 92 | 998.0 |
| 20260505165255 | 12 | 267 | 1.6 | 4.8 | 0.03 | 0.79 | 0.38 | 92 | 998.0 |
| 20260505164750 | 12 | 271 | 0.0 | 4.8 | 0.03 | 0.79 | 0.38 | 92 | 998.0 |